TimeIST,TemperatureF,Dew PointF,Humidity,Sea Level PressureIn,VisibilityMPH,Wind Direction,Wind SpeedMPH,Gust SpeedMPH,PrecipitationIn,Events,Conditions,WindDirDegrees,DateUTC
1:20 AM,55.4,46.4,72,30.01,-9999.0,NNE,5.8,-,N/A,,Clear,30,2013-02-07 23:20:00
1:50 AM,55.4,46.4,72,30.01,-9999.0,NNE,4.6,-,N/A,,Clear,30,2013-02-07 23:50:00
2:00 AM,55,46,64,30.01,6,NNE,5.8,,,,,30,2013-02-08 00:00:00
3:20 AM,51.8,44.6,76,29.98,-9999.0,Variable,2.3,-,N/A,,Clear,0,2013-02-08 01:20:00
3:50 AM,51.8,44.6,76,29.98,-9999.0,Variable,1.2,-,N/A,,Clear,0,2013-02-08 01:50:00
4:20 AM,53.6,44.6,72,29.98,-9999.0,West,4.6,-,N/A,,Clear,280,2013-02-08 02:20:00
4:50 AM,53.6,42.8,67,29.95,-9999.0,Variable,3.5,-,N/A,,Clear,0,2013-02-08 02:50:00
5:20 AM,59.0,42.8,55,29.98,-9999.0,East,5.8,-,N/A,,Clear,100,2013-02-08 03:20:00
5:50 AM,57.2,42.8,59,29.95,-9999.0,West,4.6,-,N/A,,Clear,280,2013-02-08 03:50:00
6:20 AM,50.0,44.6,82,29.98,6.2,WNW,4.6,-,N/A,,Scattered Clouds,300,2013-02-08 04:20:00
8:00 AM,53,46,68,29.98,6,,3.5,,,,,,2013-02-08 06:00:00
2:00 PM,72,50,34,29.89,6,ESE,12.7,,,,,120,2013-02-08 12:00:00
8:00 PM,60,51,64,29.98,6,,2.3,,,,,,2013-02-08 18:00:00
8:20 PM,59.0,50.0,72,29.98,-9999.0,Variable,2.3,-,N/A,,Clear,0,2013-02-08 18:20:00
9:20 PM,59.0,51.8,77,29.98,-9999.0,Variable,2.3,-,N/A,,Clear,0,2013-02-08 19:20:00
9:50 PM,57.2,50.0,77,29.98,-9999.0,Variable,1.2,-,N/A,,Clear,0,2013-02-08 19:50:00
10:20 PM,57.2,50.0,77,29.98,-9999.0,SE,4.6,-,N/A,,Clear,140,2013-02-08 20:20:00
10:50 PM,55.4,50.0,82,30.01,-9999.0,Variable,2.3,-,N/A,,Clear,0,2013-02-08 20:50:00
11:20 PM,53.6,50.0,88,30.01,-9999.0,Variable,2.3,-,N/A,,Clear,0,2013-02-08 21:20:00
11:50 PM,53.6,48.2,82,30.01,-9999.0,Variable,1.2,-,N/A,,Clear,0,2013-02-08 21:50:00